Date,TemperatureHighF,TemperatureAvgF,TemperatureLowF,DewpointHighF,DewpointAvgF,DewpointLowF,HumidityHigh,HumidityAvg,HumidityLow,PressureMaxIn,PressureMinIn,WindSpeedMaxMPH,WindSpeedAvgMPH,GustSpeedMaxMPH,PrecipitationSumIn
2014-1-1,17,15,10,14,12,7,89,88,85,0.00,40.00,4,1,9,0.00
2014-1-2,9,5,-8,5,1,-14,84,82,73,0.00,40.00,3,0,6,0.00
2014-1-3,12,8,1,9,4,-4,86,84,79,0.00,40.00,1,0,6,0.00
2014-1-4,14,9,0,11,-6,-100,88,81,78,0.00,40.00,0,0,6,0.00
2014-1-5,20,17,13,18,14,10,92,89,86,0.00,40.00,4,0,9,0.00
2014-1-6,19,13,6,17,10,1,91,86,79,0.00,40.00,0,0,4,0.00
2014-1-7,9,6,0,5,-1,-100,85,83,77,0.00,40.00,0,0,0,0.00
2014-1-8,11,8,4,8,4,-1,86,84,81,0.00,40.00,0,0,0,0.00
2014-1-9,8,2,-6,4,-3,-12,84,80,75,0.00,40.00,0,0,0,0.00
2014-1-10,-2,-4,-12,-7,-29,-100,77,64,57,0.00,40.00,0,0,2,0.00
2014-1-11,-200,0,200,-100,-100,-100,57,38,57,0.00,40.00,0,0,0,0.00
2014-1-13,-10,-12,-19,-17,-19,-27,72,70,64,0.00,40.00,0,0,0,0.00
2014-1-14,4,-4,-16,0,-10,-23,82,76,68,0.00,40.00,1,0,4,0.00
2014-1-15,3,-3,-8,-1,-9,-15,81,76,71,0.00,40.00,2,0,5,0.00
2014-1-16,13,8,3,10,4,-1,87,84,81,0.00,40.00,1,0,3,0.00
2014-1-17,28,19,12,27,17,9,95,89,86,0.00,40.00,7,1,11,0.00
2014-1-18,13,10,7,10,5,-100,87,82,79,0.00,40.00,2,0,8,0.00
2014-1-19,11,7,0,8,-6,-100,87,83,77,0.00,40.00,5,0,9,0.00
2014-1-20,30,20,8,24,17,4,94,87,78,0.00,40.00,7,2,13,0.00
2014-1-21,32,24,15,28,22,12,94,90,86,0.00,40.00,3,1,7,0.00
2014-1-22,32,27,23,29,25,21,97,93,83,0.00,40.00,4,1,16,0.00
2014-1-23,33,27,22,32,26,20,98,95,92,0.00,40.00,2,0,8,0.00
2014-1-24,42,34,21,39,32,19,98,93,84,0.00,40.00,7,3,17,1.70
2014-1-25,36,27,20,34,24,-100,98,94,89,0.00,40.00,4,2,10,0.01
2014-1-26,29,26,24,29,25,23,98,96,94,0.00,40.00,2,1,7,0.00
2014-1-28,16,14,10,13,11,7,90,88,86,0.00,40.00,0,0,2,0.00
2014-1-29,15,14,10,12,10,7,89,88,86,0.00,40.00,1,0,3,0.00
2014-1-30,7,2,-2,3,-3,-7,82,80,78,0.00,40.00,0,0,1,0.00
2014-1-31,1,1,-2,-4,-4,-8,78,78,76,0.00,40.00,0,0,2,0.00
2014-2-1,15,9,-3,12,4,-100,89,83,77,0.00,40.00,0,0,2,0.00
2014-2-2,20,15,10,18,12,5,90,88,80,0.00,40.00,5,1,10,0.00
2014-2-3,17,16,5,14,13,1,88,87,83,0.00,40.00,3,2,7,0.00
2014-2-4,1,1,1,-4,-4,-4,80,80,80,0.00,40.00,1,1,3,0.00
2014-2-5,12,8,-7,9,4,-13,87,83,75,0.00,40.00,0,0,3,0.00
2014-2-6,19,14,8,16,10,3,89,86,80,0.00,40.00,3,1,11,0.00
2014-2-7,13,9,1,7,1,-5,84,70,60,0.00,40.00,7,4,15,0.00
2014-2-8,-6,-8,-14,-13,-15,-21,72,71,69,0.00,40.00,1,0,5,0.00
2014-2-9,-14,-12,-25,-22,-53,-100,66,62,57,0.00,40.00,1,0,4,0.00
2014-2-10,-13,-2,-13,-21,-87,-100,67,59,57,0.00,40.00,0,0,3,0.00
2014-2-11,-13,-14,-26,-22,-45,-100,64,61,56,0.00,40.00,0,0,3,0.00
2014-2-12,-14,-16,-28,-23,-49,-100,64,45,59,0.00,40.00,0,0,2,0.00
2014-2-13,-2,-7,-23,-12,-26,-100,71,59,60,0.00,40.00,2,0,6,0.00
2014-2-14,-1,-9,-20,-12,-18,-29,73,62,54,0.00,40.00,5,2,11,0.00
2014-2-15,5,0,-17,-2,-10,-100,73,66,60,0.00,40.00,4,1,9,0.00
2014-2-16,5,0,-12,-2,-6,-19,78,74,68,0.00,40.00,1,0,5,0.00
2014-2-17,-9,-12,-13,-17,-19,-20,68,68,68,0.00,40.00,1,1,4,0.00
2014-2-18,5,-2,-11,-4,-10,-19,77,67,57,0.00,40.00,4,2,9,0.00
2014-2-19,4,-6,-18,-9,-16,-26,72,63,49,0.00,40.00,5,1,8,0.00
2014-2-20,-6,-10,-24,-17,-31,-100,67,54,57,0.00,40.00,2,0,7,0.00
2014-2-21,0,-2,-25,-9,-61,-100,72,55,57,0.00,40.00,1,0,3,0.00
2014-2-26,26,18,-1,14,6,-7,78,60,43,0.00,40.00,1,1,5,0.00
2014-2-27,37,28,17,11,8,4,78,44,30,0.00,40.00,6,2,12,0.03
2014-2-28,29,24,8,13,10,4,83,54,38,0.00,40.00,1,0,4,0.01
2014-3-1,28,20,6,12,5,-100,81,60,48,0.00,40.00,2,1,5,0.01
2014-3-2,25,18,0,12,8,-5,82,65,51,0.00,40.00,1,0,4,0.00
2014-3-3,24,17,2,9,6,-3,80,63,47,0.00,40.00,2,1,5,0.00
2014-3-4,20,12,-6,7,2,-12,85,67,50,0.00,40.00,1,0,4,0.00
2014-3-5,20,12,1,12,7,-4,86,81,69,0.00,40.00,3,1,7,0.00
2014-3-6,22,8,-5,9,-1,-11,83,65,41,0.00,40.00,7,2,12,0.00
2014-3-7,21,6,-10,0,-9,-17,72,52,32,0.00,40.00,7,3,14,0.00
2014-3-8,19,7,-11,-7,-14,-100,70,40,28,0.00,40.00,6,4,15,0.00
2014-3-9,11,1,-10,-16,-19,-24,68,38,27,0.00,40.00,5,2,9,0.00
2014-3-10,14,4,-16,4,-11,-27,71,49,33,0.00,40.00,5,1,9,0.00
2014-3-11,45,30,10,23,14,2,74,53,39,0.00,40.00,6,2,11,0.43
2014-3-12,27,16,0,17,5,-5,80,62,45,0.00,40.00,3,1,8,0.01
2014-3-13,46,35,25,18,12,9,69,39,31,0.00,40.00,8,4,17,0.22
2014-3-14,45,34,23,23,15,8,72,47,34,0.00,40.00,7,4,15,0.19
2014-3-15,28,18,1,20,6,-100,83,63,48,0.00,40.00,4,1,10,0.01
2014-3-16,27,14,-10,7,0,-17,77,57,39,0.00,40.00,3,2,8,0.00
2014-3-17,39,26,5,7,4,-1,82,43,24,0.00,40.00,5,2,10,0.01
2014-3-18,30,24,8,11,8,2,77,51,42,0.00,40.00,3,1,8,0.01
2014-3-19,26,20,4,17,12,-2,89,72,52,0.00,40.00,3,1,9,0.04
2014-3-20,30,20,-1,13,2,-100,79,49,37,0.00,40.00,8,4,16,0.01
2014-3-21,35,20,5,7,0,-100,63,45,27,0.00,40.00,7,5,14,0.00
2014-3-22,38,20,-1,2,-8,-100,61,32,14,0.00,40.00,6,4,12,0.00
2014-3-23,45,29,6,5,0,-6,63,32,18,0.00,40.00,7,4,13,0.01
2014-3-24,44,33,16,6,2,-3,56,29,15,0.00,40.00,9,5,17,0.01
2014-3-25,46,32,18,6,2,0,50,30,17,0.00,40.00,8,5,20,0.00
2014-3-26,47,32,21,5,1,-2,42,28,16,0.00,40.00,8,4,19,0.00
2014-3-27,44,32,8,10,5,1,76,36,20,0.00,40.00,5,2,9,0.00
2014-3-28,44,32,10,9,4,-1,68,34,17,0.00,40.00,5,3,10,0.00
2014-3-29,44,36,18,8,2,-100,52,27,19,0.00,40.00,4,2,9,0.00
2014-3-30,39,30,8,12,8,3,79,42,30,0.00,40.00,2,1,6,0.00
2014-3-31,43,32,8,13,9,4,83,41,26,0.00,40.00,4,2,9,0.00
2014-4-1,43,34,22,11,9,5,59,36,25,0.00,40.00,7,4,12,0.00
2014-4-2,40,32,12,12,10,8,83,42,29,0.00,40.00,3,2,6,0.00
2014-4-3,43,33,16,11,9,6,79,38,25,0.00,40.00,5,2,8,0.00
2014-4-4,47,29,15,16,8,3,71,42,21,0.00,40.00,6,3,12,0.00
2014-4-5,47,35,15,19,13,-100,84,45,27,0.00,40.00,4,2,8,0.00
2014-4-6,36,31,26,30,25,19,96,79,55,0.00,40.00,2,1,7,0.03
2014-4-7,33,27,19,28,23,15,96,84,69,0.00,40.00,5,2,15,0.14
2014-4-8,22,14,4,15,1,-5,84,59,35,0.00,40.00,3,2,10,0.03
2014-4-9,24,14,-7,-2,-5,-14,71,43,29,0.00,40.00,3,2,10,0.03
2014-4-10,33,17,-7,1,-3,-14,75,44,23,0.00,40.00,5,2,9,0.00
2014-4-11,40,28,3,4,1,-3,76,35,20,0.00,40.00,4,2,7,0.00
2014-4-12,47,30,9,20,4,-100,73,40,15,0.00,40.00,5,2,11,0.00
2014-4-13,57,39,18,24,18,12,79,47,22,0.00,40.00,5,1,11,0.00
2014-4-14,53,29,17,28,21,15,91,77,31,0.00,40.00,2,0,5,0.00
2014-4-15,52,45,28,33,28,22,90,53,32,0.00,40.00,5,2,12,0.00
2014-4-16,56,38,23,34,27,22,95,69,31,0.00,40.00,4,1,9,0.02
2014-4-17,56,39,22,33,28,21,96,67,38,0.00,40.00,6,2,16,0.02
2014-4-18,57,46,34,30,27,23,78,52,29,0.00,40.00,6,3,10,0.00
2014-4-19,57,41,23,34,26,-100,97,61,30,0.00,40.00,7,3,19,0.00
2014-4-20,57,47,29,30,26,23,93,48,30,0.00,40.00,10,5,16,0.00
2014-4-21,62,48,38,29,26,22,63,46,27,0.00,40.00,8,4,13,0.00
2014-4-22,59,48,33,29,26,21,83,45,28,0.00,40.00,8,4,18,0.00
2014-4-23,60,48,27,25,20,15,86,38,18,0.00,40.00,8,3,13,0.00
2014-4-24,56,45,29,36,28,22,82,52,35,0.00,40.00,9,3,16,0.00
2014-4-25,58,44,26,35,29,22,97,60,27,0.00,40.00,4,2,19,0.00
2014-4-26,59,40,23,30,26,21,96,65,24,0.00,40.00,6,3,11,0.00
2014-4-28,63,60,54,27,22,18,25,23,20,0.00,40.00,3,2,12,0.00
2014-4-29,62,50,26,36,31,23,87,52,29,0.00,40.00,7,3,19,0.00
2014-4-30,62,47,32,39,35,31,99,68,32,0.00,40.00,3,1,10,0.00
2014-5-1,70,60,33,38,35,32,97,44,25,0.00,40.00,3,2,10,0.00
2014-5-2,74,66,37,35,31,28,89,29,20,0.00,40.00,10,6,17,0.00
2014-5-3,76,61,45,35,30,-100,59,34,22,0.00,40.00,7,3,13,0.00
2014-5-4,66,54,36,40,37,33,93,55,29,0.00,40.00,7,2,15,0.00
2014-5-5,46,41,37,40,34,29,100,76,53,0.00,40.00,4,1,11,0.03
2014-5-6,58,45,25,40,34,24,99,69,42,0.00,40.00,3,2,9,0.01
2014-5-13,57,53,43,27,22,19,37,29,26,0.00,40.00,8,4,18,0.00
2014-5-14,65,54,29,28,22,14,85,34,14,0.00,40.00,4,2,8,0.00
2014-5-15,71,59,37,34,27,23,75,32,19,0.00,40.00,3,1,8,0.00
2014-5-16,68,58,40,40,35,32,79,44,30,0.00,40.00,6,3,16,0.00
2014-5-17,69,54,34,49,38,-100,97,60,37,0.00,40.00,4,2,15,0.01
2014-5-18,55,44,35,34,28,24,85,54,34,0.00,40.00,5,2,12,0.01
2014-5-19,52,42,32,33,22,-100,86,53,33,0.00,40.00,5,2,15,0.03
2014-5-20,60,48,36,28,23,-100,70,40,23,0.00,40.00,4,2,14,0.01
2014-5-21,62,50,26,28,22,16,86,37,21,0.00,40.00,8,3,23,0.00
2014-5-22,60,46,26,30,22,-100,79,44,26,0.00,40.00,6,2,12,0.00
2014-5-23,64,49,28,29,26,20,88,46,23,0.00,40.00,4,2,13,0.00
2014-5-24,67,53,36,35,27,-100,77,42,21,0.00,40.00,6,2,15,0.00
2014-5-25,59,51,44,41,36,33,87,58,46,0.00,40.00,5,2,15,0.00
2014-5-26,72,56,37,44,37,33,91,54,25,0.00,40.00,4,2,12,0.00
2014-5-27,65,52,32,42,36,30,95,58,34,0.00,40.00,5,1,13,0.00
2014-5-28,71,56,37,42,37,33,97,54,26,0.00,40.00,4,1,11,0.00
2014-5-29,78,57,34,44,37,29,97,53,21,0.00,40.00,4,1,10,0.00
2014-5-30,74,59,43,47,40,36,90,54,27,0.00,40.00,7,2,15,0.00
2014-5-31,69,54,42,46,37,-100,90,57,27,0.00,40.00,6,2,19,0.02
2014-6-1,60,46,37,41,37,32,98,75,34,0.00,40.00,3,1,12,0.02
2014-6-2,52,48,44,47,44,40,99,87,74,0.00,40.00,3,2,9,0.14
2014-6-3,69,54,43,49,44,37,100,74,33,0.00,40.00,6,1,16,0.08
2014-6-4,74,57,35,48,39,32,100,59,21,0.00,40.00,3,1,10,0.00
2014-6-5,60,54,47,55,47,41,94,79,60,0.00,40.00,4,1,14,0.18
2014-6-6,73,58,48,54,47,37,100,74,32,0.00,40.00,3,1,9,0.18
2014-6-7,79,59,33,47,36,-100,99,55,16,0.00,40.00,3,1,10,0.02
2014-6-8,77,62,50,52,45,39,84,56,30,0.00,40.00,6,2,17,0.00
2014-6-9,71,59,50,51,47,41,96,68,38,0.00,40.00,4,2,11,0.00
2014-6-10,65,56,49,49,45,34,91,69,41,0.00,40.00,3,1,12,0.03
2014-6-11,62,52,44,46,39,29,95,64,35,0.00,40.00,4,1,13,0.04
2014-6-12,70,53,29,39,32,25,98,53,20,0.00,40.00,5,1,10,0.00
2014-6-13,71,57,38,50,38,29,79,52,32,0.00,40.00,8,2,17,0.00
2014-6-14,76,62,46,51,43,-100,94,57,28,0.00,40.00,4,1,10,0.00
2014-6-15,79,64,36,47,38,31,94,43,21,0.00,40.00,6,1,12,0.00
2014-6-16,76,60,40,49,45,39,95,62,35,0.00,40.00,4,2,19,0.00
2014-6-17,70,58,46,51,45,36,95,66,30,0.00,40.00,6,1,14,0.01
2014-6-18,54,50,48,52,50,48,100,97,91,0.00,40.00,3,1,12,0.94
2014-6-19,60,52,49,55,51,49,100,96,81,0.00,40.00,5,1,13,1.45
2014-6-20,75,57,47,61,50,47,100,80,39,0.00,40.00,5,2,20,0.63
2014-6-21,65,57,46,56,50,-100,99,80,63,0.00,40.00,2,0,9,0.17
2014-6-22,75,60,46,54,45,37,100,65,29,0.00,40.00,4,1,11,0.02
2014-6-23,77,59,43,49,43,40,93,61,27,0.00,40.00,4,1,12,0.00
2014-6-24,65,56,39,57,50,38,99,81,68,0.00,40.00,3,0,8,0.03
2014-6-25,58,55,52,56,55,52,100,98,85,0.00,40.00,3,1,8,0.75
2014-6-26,63,55,49,55,51,46,100,87,61,0.00,40.00,4,1,12,0.44
2014-6-27,62,52,39,53,47,39,100,86,54,0.00,40.00,4,1,11,0.38
2014-6-28,75,58,40,64,48,-100,100,76,41,0.00,40.00,4,1,9,0.29
2014-6-29,84,64,41,53,48,41,100,62,25,0.00,40.00,5,1,10,0.01
2014-6-30,65,59,49,60,53,49,100,81,63,0.00,40.00,4,1,7,0.02
2014-7-1,57,56,54,57,55,54,100,99,97,0.00,40.00,2,1,8,1.71
2014-7-2,63,57,53,58,55,53,100,94,78,0.00,40.00,3,1,7,2.25
2014-7-3,74,61,44,56,52,44,100,76,44,0.00,40.00,5,1,9,0.01
2014-7-4,82,64,40,55,49,40,100,65,31,0.00,40.00,3,1,8,0.00
2014-7-5,87,67,42,57,47,-100,100,58,22,0.00,40.00,3,1,7,0.00
2014-7-6,89,71,50,66,55,46,92,60,31,0.00,40.00,6,1,18,0.00
2014-7-7,71,63,56,62,58,52,100,85,55,0.00,40.00,2,0,9,0.45
2014-7-8,78,63,45,58,52,45,100,72,38,0.00,40.00,4,1,11,0.06
2014-7-9,78,67,45,57,50,44,100,60,32,0.00,40.00,4,1,11,0.00
2014-7-10,81,67,47,57,52,45,99,62,32,0.00,40.00,5,2,15,0.00
2014-7-11,71,64,56,62,56,51,97,77,56,0.00,40.00,4,1,11,0.02
2014-7-12,78,67,46,55,50,44,100,60,34,0.00,40.00,3,1,10,0.02
2014-7-13,71,61,50,58,50,42,99,70,41,0.00,40.00,5,1,13,0.06
2014-7-14,68,55,38,51,45,37,99,73,44,0.00,40.00,6,3,17,0.11
2014-7-15,56,53,51,54,52,50,99,97,90,0.00,40.00,6,2,16,0.39
2014-7-16,68,59,51,58,53,49,100,82,53,0.00,40.00,3,1,14,0.10
2014-7-17,74,62,52,58,54,51,100,78,47,0.00,40.00,3,1,12,0.08
2014-7-18,71,59,51,58,53,47,100,80,54,0.00,40.00,5,1,13,0.01
2014-7-19,62,55,50,53,47,40,100,78,48,0.00,40.00,4,1,11,0.08
2014-7-20,62,52,43,47,43,40,99,74,49,0.00,40.00,2,1,11,0.05
2014-7-21,60,48,33,52,44,33,100,86,61,0.00,40.00,3,1,6,0.00
2014-7-22,73,57,47,54,50,47,99,79,51,0.00,40.00,3,1,10,0.01
2014-7-23,65,57,50,56,53,49,100,87,69,0.00,40.00,4,0,10,0.02
2014-7-24,56,53,50,55,52,49,100,97,87,0.00,40.00,2,0,10,0.29
2014-7-25,61,52,45,49,47,42,100,85,50,0.00,40.00,3,1,8,0.12
2014-7-26,64,50,32,48,40,32,100,74,34,0.00,40.00,2,1,12,0.03
2014-7-27,66,50,30,53,44,30,99,80,51,0.00,40.00,2,0,6,0.00
2014-7-28,67,57,41,52,47,40,100,73,43,0.00,40.00,2,0,6,0.00
2014-7-29,75,58,37,57,44,37,100,66,31,0.00,40.00,5,2,14,0.00
2014-7-30,76,60,35,51,46,34,99,64,35,0.00,40.00,3,1,10,0.00
2014-7-31,78,57,45,60,48,44,100,77,42,0.00,40.00,3,0,7,0.00
2014-8-1,60,57,54,59,56,54,100,98,90,0.00,40.00,3,1,14,0.97
2014-8-2,62,58,56,59,57,55,100,95,86,0.00,40.00,3,2,12,0.44
2014-8-3,80,66,55,60,57,54,100,77,46,0.00,40.00,4,1,10,0.01
2014-8-4,81,61,48,62,56,48,100,85,53,0.00,40.00,5,1,12,0.29
2014-8-5,63,57,53,60,56,53,100,97,87,0.00,40.00,2,0,5,0.66
2014-8-6,71,56,47,58,52,47,100,89,52,0.00,40.00,3,1,8,0.01
2014-8-7,77,65,50,53,49,45,99,59,35,0.00,40.00,4,2,11,0.00
2014-8-8,80,62,41,49,44,40,99,59,29,0.00,40.00,8,2,14,0.00
2014-8-9,83,60,39,59,49,38,99,71,31,0.00,40.00,7,2,15,0.11
2014-8-10,78,66,49,52,49,46,93,59,36,0.00,40.00,6,3,14,0.07
2014-8-11,82,64,51,60,52,46,88,66,36,0.00,40.00,5,2,11,0.00
2014-8-12,71,58,47,60,53,46,100,85,58,0.00,40.00,4,1,10,0.17
2014-8-13,79,62,49,57,51,47,98,72,33,0.00,40.00,5,2,12,0.01
2014-8-14,80,66,48,57,51,47,99,64,33,0.00,40.00,5,1,11,0.01
2014-8-15,71,60,49,61,53,46,94,77,57,0.00,40.00,5,2,13,0.10
2014-8-16,73,61,41,54,44,41,100,56,34,0.00,40.00,7,3,15,0.01
2014-8-17,66,58,44,56,52,43,99,84,51,0.00,40.00,3,0,6,0.12
2014-8-18,68,57,49,57,52,47,100,84,57,0.00,40.00,4,1,12,0.19
2014-8-19,68,57,49,58,52,47,100,87,53,0.00,40.00,2,1,12,0.01
2014-8-20,69,57,39,56,50,39,100,82,55,0.00,40.00,3,1,8,0.06
2014-8-21,68,55,43,54,49,42,100,83,43,0.00,40.00,2,0,14,0.02
2014-8-22,70,59,39,50,45,39,100,62,39,0.00,40.00,2,1,6,0.00
2014-8-23,70,52,39,50,44,39,100,74,42,0.00,40.00,5,1,8,0.00
2014-8-24,76,61,39,54,47,39,100,65,34,0.00,40.00,6,2,15,0.00
2014-8-25,66,56,50,55,51,47,100,87,57,0.00,40.00,3,1,9,0.12
2014-8-26,65,54,46,53,50,46,100,87,61,0.00,40.00,3,1,10,0.14
2014-8-27,67,56,50,54,51,49,100,85,56,0.00,40.00,2,1,9,0.08
2014-8-28,63,53,39,53,48,39,100,85,57,0.00,40.00,2,0,7,0.01
2014-8-29,54,49,38,51,44,35,99,85,56,0.00,40.00,4,1,15,0.06
2014-8-30,56,45,26,40,32,25,99,64,36,0.00,40.00,3,1,8,0.02
2014-8-31,52,42,30,37,32,29,99,72,41,0.00,40.00,2,1,8,0.00
2014-9-1,45,39,29,45,37,28,99,94,74,0.00,40.00,4,1,10,0.91
2014-9-2,51,45,36,47,38,31,100,79,50,0.00,40.00,4,2,17,1.05
2014-9-3,52,41,27,37,30,25,99,68,38,0.00,40.00,4,2,16,0.07
2014-9-4,57,40,22,39,29,21,98,70,33,0.00,40.00,3,1,8,0.00
2014-9-5,59,46,30,27,24,19,80,44,28,0.00,40.00,6,3,15,0.00
2014-9-6,60,51,27,35,24,20,98,36,23,0.00,40.00,5,2,14,0.00
2014-9-7,61,51,26,31,29,25,96,47,25,0.00,40.00,3,2,8,0.00
2014-9-8,66,48,31,36,30,24,86,53,31,0.00,40.00,5,3,12,0.00
2014-9-9,65,58,27,48,40,27,100,55,36,0.00,40.00,3,1,9,0.00
2014-9-10,69,57,38,51,45,37,99,67,38,0.00,40.00,1,0,7,0.00
2014-9-11,69,55,37,48,44,37,100,72,38,0.00,40.00,3,1,8,0.00
2014-9-12,71,58,37,46,42,36,99,60,34,0.00,40.00,7,4,16,0.00
2014-9-13,75,63,51,55,46,42,91,56,36,0.00,40.00,6,2,13,0.00
2014-9-14,76,62,47,53,46,42,96,61,31,0.00,40.00,5,2,13,0.00
2014-9-15,74,59,44,49,44,36,99,61,40,0.00,40.00,3,1,11,0.00
2014-9-16,63,53,37,43,41,37,100,66,44,0.00,40.00,4,1,8,0.00
2014-9-17,66,48,31,41,35,31,99,67,30,0.00,40.00,8,4,13,0.00
2014-9-18,65,52,34,42,33,30,97,53,29,0.00,40.00,6,3,13,0.00
2014-9-19,64,52,35,42,38,32,95,60,38,0.00,40.00,4,1,9,0.00
2014-9-20,50,45,41,49,44,39,100,95,86,0.00,40.00,3,1,8,0.37
2014-9-21,47,41,32,47,39,31,100,92,70,0.00,40.00,3,1,9,0.35
2014-9-22,44,35,29,35,30,26,99,85,51,0.00,40.00,4,1,7,0.03
2014-9-23,40,31,23,39,29,22,98,93,79,0.00,40.00,3,1,9,0.10
2014-9-24,39,32,25,34,30,24,99,94,76,0.00,40.00,4,1,8,0.01
2014-9-25,46,29,17,31,22,15,97,79,34,0.00,40.00,6,1,10,0.01
2014-9-26,54,39,27,26,22,19,83,54,26,0.00,40.00,8,5,18,0.00
2014-9-27,49,39,25,26,24,20,94,53,40,0.00,40.00,5,1,10,0.00
2014-9-28,43,36,20,29,26,18,93,70,52,0.00,40.00,2,1,7,0.00
2014-9-29,45,36,30,34,29,25,95,78,56,0.00,40.00,5,2,13,0.00
2014-9-30,37,35,31,34,30,26,96,83,69,0.00,40.00,5,2,14,0.02
2014-10-1,36,31,23,34,29,22,97,92,82,0.00,40.00,5,1,7,0.01
2014-10-2,44,29,24,31,26,23,98,90,56,0.00,40.00,4,0,10,0.01
2014-10-3,42,35,23,32,27,22,96,75,52,0.00,40.00,7,3,13,0.01
2014-10-4,38,32,27,33,30,26,98,90,63,0.00,40.00,6,1,14,0.13
2014-10-5,30,28,23,29,26,22,98,92,82,0.00,40.00,3,1,9,0.03
2014-10-6,33,26,18,28,23,16,96,88,73,0.00,40.00,3,1,9,0.02
2014-10-7,24,19,12,19,16,9,93,88,79,0.00,40.00,2,0,6,0.01
2014-10-8,28,21,17,21,17,15,92,84,65,0.00,40.00,4,1,6,0.00
2014-10-9,33,24,14,22,17,10,91,75,56,0.00,40.00,7,3,15,0.03
2014-10-10,35,31,26,28,23,18,92,73,64,0.00,40.00,8,2,17,0.05
2014-10-11,40,30,20,30,23,17,92,77,60,0.00,40.00,5,2,9,0.07
2014-10-12,35,31,26,29,27,23,97,86,73,0.00,40.00,2,0,7,0.04
2014-10-13,32,27,22,28,25,21,97,93,83,0.00,40.00,3,0,4,0.01
2014-10-14,37,29,19,29,25,16,97,84,59,0.00,40.00,2,0,6,0.02
2014-10-15,32,25,12,21,18,9,91,76,58,0.00,40.00,4,1,8,0.01
2014-10-16,34,26,17,22,21,14,92,79,57,0.00,40.00,3,0,8,0.00
2014-10-17,30,21,10,23,17,7,92,85,74,0.00,40.00,1,0,5,0.00
2014-10-18,35,26,15,29,22,12,96,80,69,0.00,40.00,5,1,12,0.00
2014-10-19,35,28,18,28,23,16,94,82,62,0.00,40.00,3,0,5,0.02
2014-10-20,38,34,29,25,22,21,85,62,53,0.00,40.00,9,4,19,0.01
2014-10-21,37,28,22,26,22,19,91,78,59,0.00,40.00,3,0,8,0.00
2014-10-22,28,25,15,23,21,13,91,85,78,0.00,40.00,2,0,4,0.00
2014-10-23,24,19,7,22,16,3,92,88,84,0.00,40.00,1,0,3,0.00
2014-10-24,27,22,14,23,20,11,94,91,85,0.00,40.00,2,0,6,0.00
2014-10-25,28,23,17,24,20,14,95,90,83,0.00,40.00,5,2,9,0.00
2014-10-26,21,12,4,17,8,0,89,84,81,0.00,40.00,2,0,9,0.00
2014-10-27,20,10,-1,16,7,-6,89,85,78,0.00,40.00,1,0,10,0.00
2014-10-28,20,10,2,17,7,-3,88,85,80,0.00,40.00,0,0,5,0.00
2014-10-29,10,7,-4,6,2,-10,86,82,76,0.00,40.00,2,0,4,0.00
2014-10-30,15,10,3,10,5,-1,87,84,80,0.00,40.00,2,0,5,0.00
2014-10-31,18,9,1,12,5,-4,86,82,71,0.00,40.00,4,1,9,0.00
2014-11-1,21,10,1,14,4,-4,85,77,68,0.00,40.00,4,2,9,0.00
2014-11-2,23,19,12,13,8,3,75,63,52,0.00,40.00,6,4,15,0.00
2014-11-3,19,10,-5,9,3,-10,84,70,61,0.00,40.00,5,1,13,0.00
2014-11-4,5,-3,-10,-2,-9,-17,80,75,70,0.00,40.00,1,0,4,0.00
2014-11-5,11,0,-11,7,-5,-18,85,77,71,0.00,40.00,5,1,12,0.00
2014-11-6,21,12,0,10,4,-5,83,68,54,0.00,40.00,8,4,15,0.00
2014-11-7,20,12,3,8,4,-2,81,69,55,0.00,40.00,6,3,13,0.00
2014-11-8,13,5,0,7,1,-5,84,78,71,0.00,40.00,1,0,6,0.00
2014-11-9,38,18,3,23,11,-2,89,75,51,0.00,40.00,7,2,16,0.00
2014-11-10,38,28,10,25,18,7,87,68,52,0.00,40.00,5,2,13,0.01
2014-11-11,31,20,9,24,17,5,91,86,72,0.00,40.00,2,0,8,0.01
2014-11-12,28,24,16,25,21,14,91,88,83,0.00,40.00,1,0,3,0.00
2014-11-13,20,14,7,18,11,3,91,88,83,0.00,40.00,1,0,5,0.00
2014-11-14,16,6,0,13,2,-5,89,83,78,0.00,40.00,0,0,3,0.00
2014-11-15,8,2,-2,4,-3,-7,83,79,77,0.00,40.00,0,0,2,0.00
2014-11-16,8,0,-6,4,-5,-12,84,78,75,0.00,40.00,0,0,2,0.00
2014-11-17,14,7,2,10,2,-3,87,82,79,0.00,40.00,0,0,2,0.00
2014-11-18,20,8,1,18,4,-4,90,83,79,0.00,40.00,0,0,2,0.00
2014-11-19,23,16,9,21,14,5,92,88,84,0.00,40.00,5,0,10,0.00
2014-11-20,18,4,-1,16,0,-6,90,81,78,0.00,40.00,1,0,7,0.00
2014-11-21,21,9,-3,14,2,-8,89,75,53,0.00,40.00,6,2,13,0.00
2014-11-22,13,4,-8,-2,-9,-15,72,53,43,0.00,40.00,8,4,17,0.00
2014-11-23,7,1,-5,0,-6,-11,80,70,55,0.00,40.00,3,0,11,0.00